Time,TemperatureF,DewpointF,PressureIn,WindDirection,WindDirectionDegrees,WindSpeedMPH,WindSpeedGustMPH,Humidity,HourlyPrecipIn,Conditions,Clouds,dailyrainin,SoftwareType,DateUTC
2013-07-09 00:02:00,80.0,-99.9,30.19,ESE,120,5.0,6.0,-999,-99.99,,,-99.99,,2013-07-09 05:02:00,
2013-07-09 00:12:00,80.0,-99.9,30.19,ESE,109,5.0,6.0,-999,-99.99,,,-99.99,,2013-07-09 05:12:00,
2013-07-09 00:34:00,80.0,-99.9,30.19,ESE,112,5.0,5.0,-999,-99.99,,,-99.99,,2013-07-09 05:34:00,
2013-07-09 00:42:00,80.0,-99.9,30.19,ESE,116,4.0,5.0,-999,-99.99,,,-99.99,,2013-07-09 05:42:00,
2013-07-09 00:52:00,80.0,-99.9,30.19,ESE,105,6.0,6.0,-999,-99.99,,,-99.99,,2013-07-09 05:52:00,
2013-07-09 01:01:00,80.0,-99.9,30.17,SE,135,6.0,7.0,-999,-99.99,,,-99.99,,2013-07-09 06:01:00,
2013-07-09 01:11:00,80.0,-99.9,30.17,SE,137,6.0,7.0,-999,-99.99,,,-99.99,,2013-07-09 06:11:00,
2013-07-09 01:34:00,80.0,-99.9,30.16,SSE,155,5.0,6.0,-999,-99.99,,,-99.99,,2013-07-09 06:34:00,
2013-07-09 01:43:00,80.0,-99.9,30.16,SE,145,5.0,6.0,-999,-99.99,,,-99.99,,2013-07-09 06:43:00,
2013-07-09 01:53:00,80.0,-99.9,30.16,SE,139,5.0,6.0,-999,-99.99,,,-99.99,,2013-07-09 06:53:00,
2013-07-09 02:02:00,80.0,-99.9,30.16,SSE,148,3.0,4.0,-999,-99.99,,,-99.99,,2013-07-09 07:02:00,
2013-07-09 02:12:00,80.0,-99.9,30.16,SSE,156,3.0,5.0,-999,-99.99,,,-99.99,,2013-07-09 07:12:00,
2013-07-09 02:34:00,79.0,-99.9,30.15,SSE,158,3.0,3.0,-999,-99.99,,,-99.99,,2013-07-09 07:34:00,
2013-07-09 02:43:00,79.0,-99.9,30.15,South,169,2.0,2.0,-999,-99.99,,,-99.99,,2013-07-09 07:43:00,
2013-07-09 02:53:00,79.0,-99.9,30.16,ESE,107,2.0,2.0,-999,-99.99,,,-99.99,,2013-07-09 07:53:00,
2013-07-09 03:01:00,79.0,-99.9,30.16,ESE,118,2.0,3.0,-999,-99.99,,,-99.99,,2013-07-09 08:01:00,
2013-07-09 03:12:00,79.0,-99.9,30.15,ESE,113,0.0,-999.0,-999,-99.99,,,-99.99,,2013-07-09 08:12:00,
2013-07-09 03:33:00,79.0,-99.9,30.16,NW,319,2.0,2.0,-999,-99.99,,,-99.99,,2013-07-09 08:33:00,
2013-07-09 03:43:00,79.0,-99.9,30.16,WNW,298,2.0,2.0,-999,-99.99,,,-99.99,,2013-07-09 08:43:00,
2013-07-09 03:52:00,79.0,-99.9,30.16,WNW,292,2.0,3.0,-999,-99.99,,,-99.99,,2013-07-09 08:52:00,
2013-07-09 04:02:00,79.0,-99.9,30.16,West,272,1.0,1.0,-999,-99.99,,,-99.99,,2013-07-09 09:02:00,
2013-07-09 04:12:00,79.0,-99.9,30.16,WNW,303,1.0,2.0,-999,-99.99,,,-99.99,,2013-07-09 09:12:00,
2013-07-09 04:34:00,78.0,-99.9,30.16,West,260,2.0,2.0,-999,-99.99,,,-99.99,,2013-07-09 09:34:00,
2013-07-09 04:43:00,79.0,-99.9,30.16,NW,320,2.0,3.0,-999,-99.99,,,-99.99,,2013-07-09 09:43:00,
2013-07-09 04:53:00,79.0,-99.9,30.17,NW,312,2.0,2.0,-999,-99.99,,,-99.99,,2013-07-09 09:53:00,
2013-07-09 05:02:00,79.0,-99.9,30.17,NW,323,1.0,2.0,-999,-99.99,,,-99.99,,2013-07-09 10:02:00,
2013-07-09 05:11:00,79.0,-99.9,30.17,WNW,302,2.0,3.0,-999,-99.99,,,-99.99,,2013-07-09 10:11:00,
2013-07-09 05:22:00,79.0,-99.9,30.17,WNW,302,2.0,3.0,-999,-99.99,,,-99.99,,2013-07-09 10:22:00,
2013-07-09 05:34:00,78.0,-99.9,30.17,WNW,298,2.0,3.0,-999,-99.99,,,-99.99,,2013-07-09 10:34:00,
2013-07-09 05:42:00,78.0,-99.9,30.17,WNW,297,2.0,3.0,-999,-99.99,,,-99.99,,2013-07-09 10:42:00,
2013-07-09 05:52:00,78.0,-99.9,30.17,NW,311,3.0,4.0,-999,-99.99,,,-99.99,,2013-07-09 10:52:00,
2013-07-09 06:02:00,78.0,-99.9,30.17,NW,311,2.0,2.0,-999,-99.99,,,-99.99,,2013-07-09 11:02:00,
2013-07-09 06:11:00,78.0,-99.9,30.17,WNW,288,1.0,2.0,-999,-99.99,,,-99.99,,2013-07-09 11:11:00,
2013-07-09 06:34:00,78.0,-99.9,30.18,WNW,290,1.0,2.0,-999,-99.99,,,-99.99,,2013-07-09 11:34:00,
2013-07-09 06:42:00,78.0,-99.9,30.18,WNW,298,1.0,1.0,-999,-99.99,,,-99.99,,2013-07-09 11:42:00,
2013-07-09 06:53:00,78.0,-99.9,30.18,North,-999,-999.0,-999.0,-999,-99.99,,,-99.99,,2013-07-09 11:53:00,
2013-07-09 07:02:00,79.0,-99.9,30.18,North,-999,-999.0,-999.0,-999,-99.99,,,-99.99,,2013-07-09 12:02:00,
2013-07-09 07:12:00,79.0,-99.9,30.19,WNW,291,-999.0,1.0,-999,-99.99,,,-99.99,,2013-07-09 12:12:00,
2013-07-09 07:33:00,81.0,-99.9,30.19,ESE,118,-999.0,2.0,-999,-99.99,,,-99.99,,2013-07-09 12:33:00,
2013-07-09 07:43:00,81.0,-99.9,30.19,ESE,117,1.0,4.0,-999,-99.99,,,-99.99,,2013-07-09 12:43:00,
2013-07-09 07:53:00,80.0,-99.9,30.19,East,99,4.0,4.0,-999,-99.99,,,-99.99,,2013-07-09 12:53:00,
2013-07-09 08:01:00,80.0,-99.9,30.19,East,82,3.0,4.0,-999,-99.99,,,-99.99,,2013-07-09 13:01:00,
2013-07-09 08:11:00,80.0,-99.9,30.19,East,95,2.0,4.0,-999,-99.99,,,-99.99,,2013-07-09 13:11:00,
2013-07-09 08:33:00,80.0,-99.9,30.21,ENE,69,5.0,6.0,-999,-99.99,,,-99.99,,2013-07-09 13:33:00,
2013-07-09 08:44:00,80.0,-99.9,30.21,East,88,5.0,6.0,-999,-99.99,,,-99.99,,2013-07-09 13:44:00,
2013-07-09 08:53:00,80.0,-99.9,30.22,East,93,5.0,5.0,-999,-99.99,,,-99.99,,2013-07-09 13:53:00,
2013-07-09 09:02:00,80.0,-99.9,30.22,East,86,5.0,5.0,-999,-99.99,,,-99.99,,2013-07-09 14:02:00,
2013-07-09 09:11:00,80.0,-99.9,30.22,East,87,4.0,4.0,-999,-99.99,,,-99.99,,2013-07-09 14:11:00,
2013-07-09 09:34:00,82.0,-99.9,30.22,NE,52,1.0,3.0,-999,-99.99,,,-99.99,,2013-07-09 14:34:00,
2013-07-09 09:43:00,81.0,-99.9,30.22,NE,36,3.0,3.0,-999,-99.99,,,-99.99,,2013-07-09 14:43:00,
2013-07-09 09:53:00,81.0,-99.9,30.22,NE,38,2.0,4.0,-999,-99.99,,,-99.99,,2013-07-09 14:53:00,
2013-07-09 10:02:00,82.0,-99.9,30.22,NE,39,3.0,4.0,-999,-99.99,,,-99.99,,2013-07-09 15:02:00,
2013-07-09 10:12:00,81.0,-99.9,30.22,NE,45,3.0,4.0,-999,-99.99,,,-99.99,,2013-07-09 15:12:00,
2013-07-09 10:34:00,81.0,-99.9,30.22,ENE,66,4.0,6.0,-999,-99.99,,,-99.99,,2013-07-09 15:34:00,
2013-07-09 10:43:00,81.0,-99.9,30.22,ENE,66,4.0,6.0,-999,-99.99,,,-99.99,,2013-07-09 15:43:00,
2013-07-09 10:52:00,81.0,-99.9,30.22,NE,54,4.0,5.0,-999,-99.99,,,-99.99,,2013-07-09 15:52:00,
2013-07-09 11:02:00,81.0,-99.9,30.22,ENE,78,4.0,5.0,-999,-99.99,,,-99.99,,2013-07-09 16:02:00,
2013-07-09 11:12:00,81.0,-99.9,30.22,East,84,3.0,4.0,-999,-99.99,,,-99.99,,2013-07-09 16:12:00,
2013-07-09 11:34:00,81.0,-99.9,30.23,ENE,75,3.0,4.0,-999,-99.99,,,-99.99,,2013-07-09 16:34:00,
2013-07-09 11:43:00,82.0,-99.9,30.23,ENE,59,2.0,4.0,-999,-99.99,,,-99.99,,2013-07-09 16:43:00,
2013-07-09 11:53:00,82.0,-99.9,30.23,ENE,68,4.0,4.0,-999,-99.99,,,-99.99,,2013-07-09 16:53:00,
2013-07-09 12:02:00,81.0,-99.9,30.23,ESE,119,4.0,5.0,-999,-99.99,,,-99.99,,2013-07-09 17:02:00,
2013-07-09 12:11:00,82.0,-99.9,30.23,ESE,115,5.0,6.0,-999,-99.99,,,-99.99,,2013-07-09 17:11:00,
2013-07-09 12:35:00,82.0,-99.9,30.22,SE,145,4.0,4.0,-999,-99.99,,,-99.99,,2013-07-09 17:35:00,
2013-07-09 12:45:00,82.0,-99.9,30.22,ESE,121,3.0,5.0,-999,-99.99,,,-99.99,,2013-07-09 17:45:00,
2013-07-09 12:53:00,82.0,-99.9,30.22,SSE,156,4.0,6.0,-999,-99.99,,,-99.99,,2013-07-09 17:53:00,
2013-07-09 13:02:00,82.0,-99.9,30.22,South,182,5.0,8.0,-999,-99.99,,,-99.99,,2013-07-09 18:02:00,
2013-07-09 13:11:00,82.0,-99.9,30.22,SSE,156,6.0,8.0,-999,-99.99,,,-99.99,,2013-07-09 18:11:00,
2013-07-09 13:43:00,82.0,-99.9,30.21,SSE,165,5.0,7.0,-999,-99.99,,,-99.99,,2013-07-09 18:43:00,
2013-07-09 13:52:00,82.0,-99.9,30.20,SSE,153,6.0,8.0,-999,-99.99,,,-99.99,,2013-07-09 18:52:00,
2013-07-09 14:01:00,83.0,-99.9,30.20,South,171,6.0,9.0,-999,-99.99,,,-99.99,,2013-07-09 19:01:00,
2013-07-09 14:11:00,83.0,-99.9,30.19,South,183,5.0,8.0,-999,-99.99,,,-99.99,,2013-07-09 19:11:00,
2013-07-09 14:33:00,83.0,-99.9,30.19,South,179,6.0,9.0,-999,-99.99,,,-99.99,,2013-07-09 19:33:00,
2013-07-09 14:42:00,83.0,-99.9,30.19,South,184,7.0,9.0,-999,-99.99,,,-99.99,,2013-07-09 19:42:00,
2013-07-09 14:52:00,83.0,-99.9,30.18,South,181,7.0,8.0,-999,-99.99,,,-99.99,,2013-07-09 19:52:00,
2013-07-09 15:02:00,83.0,-99.9,30.18,South,183,6.0,8.0,-999,-99.99,,,-99.99,,2013-07-09 20:02:00,
2013-07-09 15:43:00,83.0,-99.9,30.16,South,184,7.0,9.0,-999,-99.99,,,-99.99,,2013-07-09 20:43:00,
2013-07-09 15:52:00,83.0,-99.9,30.16,South,186,8.0,10.0,-999,-99.99,,,-99.99,,2013-07-09 20:52:00,
2013-07-09 16:01:00,83.0,-99.9,30.16,South,187,8.0,10.0,-999,-99.99,,,-99.99,,2013-07-09 21:01:00,
2013-07-09 16:22:00,83.0,-99.9,30.16,SSW,197,6.0,10.0,-999,-99.99,,,-99.99,,2013-07-09 21:22:00,
2013-07-09 16:52:00,83.0,-99.9,30.15,SSW,197,7.0,11.0,-999,-99.99,,,-99.99,,2013-07-09 21:52:00,
2013-07-09 17:01:00,83.0,-99.9,30.14,South,185,9.0,12.0,-999,-99.99,,,-99.99,,2013-07-09 22:01:00,
2013-07-09 17:11:00,83.0,-99.9,30.14,South,186,9.0,11.0,-999,-99.99,,,-99.99,,2013-07-09 22:11:00,
2013-07-09 17:33:00,83.0,-99.9,30.14,South,182,9.0,11.0,-999,-99.99,,,-99.99,,2013-07-09 22:33:00,
2013-07-09 17:42:00,83.0,-99.9,30.14,South,184,9.0,11.0,-999,-99.99,,,-99.99,,2013-07-09 22:42:00,
2013-07-09 17:53:00,83.0,-99.9,30.14,South,185,9.0,12.0,-999,-99.99,,,-99.99,,2013-07-09 22:53:00,
2013-07-09 18:02:00,83.0,-99.9,30.13,South,186,9.0,11.0,-999,-99.99,,,-99.99,,2013-07-09 23:02:00,
2013-07-09 18:12:00,83.0,-99.9,30.13,SSW,199,7.0,11.0,-999,-99.99,,,-99.99,,2013-07-09 23:12:00,
2013-07-09 18:22:00,83.0,-99.9,30.13,SSW,199,7.0,11.0,-999,-99.99,,,-99.99,,2013-07-09 23:22:00,
2013-07-09 18:43:00,83.0,-99.9,30.13,South,187,9.0,13.0,-999,-99.99,,,-99.99,,2013-07-09 23:43:00,
2013-07-09 18:53:00,83.0,-99.9,30.12,South,187,8.0,11.0,-999,-99.99,,,-99.99,,2013-07-09 23:53:00,
2013-07-09 19:01:00,83.0,-99.9,30.12,SSW,197,8.0,12.0,-999,-99.99,,,-99.99,,2013-07-10 00:01:00,
2013-07-09 19:11:00,83.0,-99.9,30.13,SSW,198,6.0,11.0,-999,-99.99,,,-99.99,,2013-07-10 00:11:00,
2013-07-09 19:33:00,83.0,-99.9,30.13,SSW,208,6.0,9.0,-999,-99.99,,,-99.99,,2013-07-10 00:33:00,
2013-07-09 19:43:00,83.0,-99.9,30.13,SSW,195,6.0,11.0,-999,-99.99,,,-99.99,,2013-07-10 00:43:00,
2013-07-09 19:52:00,83.0,-99.9,30.13,SSW,199,6.0,8.0,-999,-99.99,,,-99.99,,2013-07-10 00:52:00,
2013-07-09 20:01:00,83.0,-99.9,30.13,SSW,197,6.0,9.0,-999,-99.99,,,-99.99,,2013-07-10 01:01:00,
2013-07-09 20:11:00,83.0,-99.9,30.13,South,189,7.0,9.0,-999,-99.99,,,-99.99,,2013-07-10 01:11:00,
2013-07-09 20:33:00,82.0,-99.9,30.13,SSW,206,6.0,8.0,-999,-99.99,,,-99.99,,2013-07-10 01:33:00,
2013-07-09 20:43:00,82.0,-99.9,30.12,SSW,206,5.0,10.0,-999,-99.99,,,-99.99,,2013-07-10 01:43:00,
2013-07-09 20:53:00,82.0,-99.9,30.12,SSW,203,6.0,10.0,-999,-99.99,,,-99.99,,2013-07-10 01:53:00,
2013-07-09 21:02:00,82.0,-99.9,30.13,SSW,206,5.0,9.0,-999,-99.99,,,-99.99,,2013-07-10 02:02:00,
2013-07-09 21:12:00,82.0,-99.9,30.14,SSW,206,5.0,8.0,-999,-99.99,,,-99.99,,2013-07-10 02:12:00,
2013-07-09 21:34:00,82.0,-99.9,30.14,SSW,207,4.0,8.0,-999,-99.99,,,-99.99,,2013-07-10 02:34:00,
2013-07-09 21:43:00,82.0,-99.9,30.14,SSW,207,4.0,9.0,-999,-99.99,,,-99.99,,2013-07-10 02:43:00,
2013-07-09 21:53:00,82.0,-99.9,30.15,SW,226,6.0,7.0,-999,-99.99,,,-99.99,,2013-07-10 02:53:00,
2013-07-09 22:01:00,82.0,-99.9,30.15,SW,216,5.0,7.0,-999,-99.99,,,-99.99,,2013-07-10 03:01:00,
2013-07-09 22:12:00,82.0,-99.9,30.15,SW,216,5.0,7.0,-999,-99.99,,,-99.99,,2013-07-10 03:12:00,
2013-07-09 22:32:00,82.0,-99.9,30.16,SW,227,4.0,6.0,-999,-99.99,,,-99.99,,2013-07-10 03:32:00,
2013-07-09 22:43:00,82.0,-99.9,30.15,SW,226,4.0,7.0,-999,-99.99,,,-99.99,,2013-07-10 03:43:00,
2013-07-09 22:52:00,82.0,-99.9,30.15,SSW,212,4.0,6.0,-999,-99.99,,,-99.99,,2013-07-10 03:52:00,
2013-07-09 23:01:00,82.0,-99.9,30.15,SSW,206,4.0,6.0,-999,-99.99,,,-99.99,,2013-07-10 04:01:00,
2013-07-09 23:11:00,82.0,-99.9,30.15,SW,220,5.0,8.0,-999,-99.99,,,-99.99,,2013-07-10 04:11:00,
2013-07-09 23:22:00,82.0,-99.9,30.15,SW,220,5.0,8.0,-999,-99.99,,,-99.99,,2013-07-10 04:22:00,
2013-07-09 23:33:00,81.0,-99.9,30.14,West,260,4.0,7.0,-999,-99.99,,,-99.99,,2013-07-10 04:33:00,
2013-07-09 23:52:00,81.0,-99.9,30.14,West,263,5.0,6.0,-999,-99.99,,,-99.99,,2013-07-10 04:52:00,